Hurlburt Field, FL

5:05 PM CST on November 23, 2017 (GMT -0600)
Hurlburt

Weather History for KHRT - March, 2013

Change the Weather History Date:

Saturday, March 23, 2013

  Actual Average Record
Temperature  
Mean Temperature 64 °F -  
Max Temperature 68 °F 68 °F 77 °F (1997)
Min Temperature 60 °F 50 °F 35 °F (2002)
Degree Days  
Heating Degree Days 1    
Growing Degree Days 14 (Base 50)    
Moisture  
Dew Point 63 °F    
Average Humidity 93    
Maximum Humidity 100    
Minimum Humidity 52    
Precipitation  
Precipitation 0.42 in - - ()
Sea Level Pressure  
Sea Level Pressure 29.76 in    
Wind  
Wind Speed 6 mph (East)    
Max Wind Speed 16 mph    
Max Gust Speed 22 mph    
Visibility 8 miles    
Events Rain , Thunderstorm    
Averages and records for this station are not official NWS values.
T = Trace of Precipitation, MM = Missing Value Source: NWS Daily Summary

Daily Weather History Graph

Daily Weather History Graph

Search for Another Location

Airport or City:

Trip Planner

Search our weather history database for the weather conditions in past years. The results will help you decide how hot, cold, wet, or windy it might be!

Date:

Astronomy

Mar. 23, 2013 Rise Set
Actual Time 6:46 AM CDT 7:00 PM CDT
Civil Twilight 6:22 AM CDT 7:24 PM CDT
Nautical Twilight 5:54 AM CDT 7:52 PM CDT
Astronomical Twilight 5:26 AM CDT 8:20 PM CDT
Moon 3:39 PM CDT 4:08 AM CDT
Length of Visible Light 13h 01m
Length of Day
12h 13m
Waxing Gibbous, 85% of the Moon is Illuminated
Mar 23
Waxing Gibbous
Mar 27
Full
Apr 2
Last Quarter
Apr 10
New
Apr 18
First Quarter

Hourly Weather History & Observations

Time (CDT) Temp. Dew Point Humidity Pressure Visibility Wind Dir Wind Speed Gust Speed Precip Events Conditions
12:58 AM 63.1 °F 45.1 °F 52% 29.90 in 10.0 mi East 8.1 mph - N/A   Overcast
1:58 AM 63.1 °F 50.0 °F 62% 29.90 in 10.0 mi East 5.8 mph - N/A   Overcast
2:52 AM 62.6 °F 51.8 °F 68% 29.86 in 10.0 mi East 5.8 mph - N/A Rain Light Rain
2:58 AM 63.1 °F 52.9 °F 69% 29.87 in 10.0 mi East 8.1 mph - 0.00 in Rain Light Rain
3:02 AM 62.6 °F 53.6 °F 72% 29.85 in 10.0 mi East 6.9 mph - N/A   Overcast
3:57 AM 62.6 °F 51.8 °F 68% 29.82 in 10.0 mi East 8.1 mph - N/A   Overcast
3:58 AM 62.6 °F 51.8 °F 68% 29.83 in 10.0 mi East 9.2 mph - 0.00 in   Overcast
4:08 AM 62.6 °F 51.8 °F 68% 29.82 in 10.0 mi East 8.1 mph - N/A   Overcast
4:33 AM 62.6 °F 51.8 °F 68% 29.83 in 10.0 mi East 4.6 mph - N/A   Overcast
4:58 AM 62.8 °F 52.7 °F 70% 29.84 in 10.0 mi East 4.6 mph - N/A   Overcast
5:12 AM 62.6 °F 53.6 °F 72% 29.83 in 10.0 mi East 5.8 mph - N/A Rain Light Rain
5:17 AM 62.6 °F 53.6 °F 72% 29.83 in 9.0 mi East 8.1 mph - N/A Rain Light Rain
5:26 AM 60.8 °F 53.6 °F 77% 29.82 in 10.0 mi Variable 3.5 mph - N/A   Overcast
5:50 AM 60.8 °F 55.4 °F 82% 29.83 in 10.0 mi NE 2.3 mph - N/A Rain Light Rain
5:58 AM 61.7 °F 54.9 °F 78% 29.84 in 10.0 mi Calm Calm - 0.00 in Rain Light Rain
6:05 AM 60.8 °F 55.4 °F 82% 29.83 in 10.0 mi ESE 4.6 mph - N/A   Overcast
6:40 AM 60.8 °F 55.4 °F 82% 29.85 in 10.0 mi East 3.5 mph - N/A Rain Light Rain
6:48 AM 60.8 °F 55.4 °F 82% 29.84 in 10.0 mi ENE 4.6 mph - N/A   Overcast
6:58 AM 61.7 °F 56.7 °F 84% 29.86 in 10.0 mi ESE 3.5 mph - 0.00 in   Overcast
7:23 AM 62.6 °F 57.2 °F 82% 29.83 in 10.0 mi East 4.6 mph - N/A   Overcast
7:58 AM 62.8 °F 59.9 °F 90% 29.85 in 10.0 mi East 4.6 mph - N/A   Overcast
8:28 AM 64.4 °F 62.6 °F 94% 29.84 in 10.0 mi ESE 4.6 mph - N/A   Overcast
8:58 AM 64.0 °F 63.7 °F 99% 29.86 in 10.0 mi ESE 8.1 mph - N/A   Overcast
9:58 AM 64.9 °F 64.8 °F 99% 29.84 in 10.0 mi SE 9.2 mph - N/A   Overcast
10:58 AM 66.0 °F 66.0 °F 100% 29.84 in 10.0 mi ESE 5.8 mph - N/A   Overcast
11:13 AM 66.2 °F 66.2 °F 100% 29.83 in 10.0 mi East 5.8 mph - N/A   Overcast
11:58 AM 67.5 °F 67.5 °F 100% 29.83 in 10.0 mi East 4.6 mph - N/A   Overcast
12:33 PM 68.0 °F 68.0 °F 100% 29.80 in 10.0 mi East 6.9 mph - N/A   Overcast
12:43 PM 68.0 °F 68.0 °F 100% 29.80 in 10.0 mi East 5.8 mph - N/A   Overcast
12:57 PM 68.0 °F 68.0 °F 100% 29.78 in 10.0 mi East 5.8 mph - N/A Rain Light Rain
12:58 PM 68.0 °F 68.0 °F 100% 29.79 in 10.0 mi East 5.8 mph - N/A Rain Light Rain
1:06 PM 66.2 °F 66.2 °F 100% 29.77 in 10.0 mi East 6.9 mph - N/A Rain , Thunderstorm Light Thunderstorms and Rain
1:21 PM 66.2 °F 66.2 °F 100% 29.76 in 3.0 mi East 4.6 mph - N/A Rain , Thunderstorm Light Thunderstorms and Rain
1:23 PM 66.2 °F 66.2 °F 100% 29.77 in 3.0 mi East 4.6 mph - N/A Rain Light Rain
1:28 PM 66.2 °F 66.2 °F 100% 29.76 in 6.0 mi ENE 4.6 mph - N/A Rain Light Rain
1:58 PM 66.2 °F 66.2 °F 100% 29.78 in 4.0 mi SE 6.9 mph - 0.13 in Rain , Thunderstorm Rain
2:14 PM 68.0 °F 68.0 °F 100% 29.75 in 4.0 mi North 3.5 mph - N/A   Mostly Cloudy
2:19 PM 68.0 °F 68.0 °F 100% 29.75 in 6.0 mi North 5.8 mph - N/A   Mostly Cloudy
2:24 PM 68.0 °F 68.0 °F 100% 29.75 in 6.0 mi NNE 3.5 mph - N/A   Mostly Cloudy
2:31 PM 68.0 °F 68.0 °F 100% 29.75 in 4.0 mi North 4.6 mph - N/A Rain Light Rain
2:36 PM 68.0 °F 68.0 °F 100% 29.74 in 4.0 mi North 6.9 mph - N/A Rain Light Rain
2:41 PM 68.0 °F 68.0 °F 100% 29.74 in 3.0 mi NNE 5.8 mph - N/A Rain Light Rain
2:58 PM 67.6 °F 67.6 °F 100% 29.75 in 6.0 mi ENE 5.8 mph - 0.03 in Rain Light Rain
3:13 PM 68.0 °F 68.0 °F 100% 29.73 in 7.0 mi ENE 6.9 mph - N/A Rain Light Rain
3:18 PM 68.0 °F 68.0 °F 100% 29.73 in 7.0 mi NE 5.8 mph - N/A Rain Light Rain
3:30 PM 68.0 °F 68.0 °F 100% 29.71 in 6.0 mi NE 10.4 mph - N/A Rain , Thunderstorm Light Thunderstorms and Rain
3:35 PM 68.0 °F 68.0 °F 100% 29.71 in 1.8 mi NE 9.2 mph - N/A Rain , Thunderstorm Light Thunderstorms and Rain
3:40 PM 68.0 °F 68.0 °F 100% 29.77 in 1.5 mi WNW 16.1 mph 21.9 mph N/A Rain , Thunderstorm Light Thunderstorms and Rain
3:42 PM 68.0 °F 68.0 °F 100% 29.76 in 1.2 mi NNW 12.7 mph 21.9 mph N/A Rain , Thunderstorm Light Thunderstorms and Rain
3:47 PM 66.2 °F 66.2 °F 100% 29.75 in 1.0 mi North 9.2 mph 21.9 mph N/A Rain , Thunderstorm Heavy Thunderstorms and Rain
3:49 PM 64.4 °F 64.4 °F 100% 29.75 in 1.0 mi NNW 6.9 mph 21.9 mph N/A Rain , Thunderstorm Rain
3:54 PM 64.4 °F 64.4 °F 100% 29.73 in 1.5 mi Calm Calm - N/A Rain , Thunderstorm Heavy Rain
3:58 PM 64.4 °F 64.4 °F 100% 29.74 in 1.8 mi Variable 2.3 mph - 0.21 in Rain , Thunderstorm Heavy Rain
4:03 PM 64.4 °F 64.4 °F 100% 29.74 in 2.0 mi East 6.9 mph - N/A Rain Light Rain
4:08 PM 64.4 °F 64.4 °F 100% 29.74 in 3.0 mi SE 5.8 mph - N/A Rain Light Rain
4:18 PM 64.4 °F 64.4 °F 100% 29.73 in 10.0 mi ESE 4.6 mph - N/A Rain Light Rain
4:30 PM 66.2 °F 66.2 °F 100% 29.72 in 10.0 mi East 5.8 mph - N/A   Mostly Cloudy
4:55 PM 66.2 °F 66.2 °F 100% 29.72 in 10.0 mi ESE 6.9 mph - N/A   Overcast
4:58 PM 66.2 °F 66.2 °F 100% 29.73 in 10.0 mi East 8.1 mph - 0.04 in   Overcast
5:19 PM 64.4 °F 64.4 °F 100% 29.72 in 10.0 mi East 8.1 mph - N/A   Light Drizzle
5:24 PM 64.4 °F 64.4 °F 100% 29.72 in 10.0 mi ENE 10.4 mph - N/A   Light Drizzle
5:28 PM 64.4 °F 64.4 °F 100% 29.71 in 10.0 mi East 5.8 mph - N/A   Overcast
5:54 PM 64.4 °F 64.4 °F 100% 29.71 in 10.0 mi East 5.8 mph - N/A   Light Drizzle
5:58 PM 64.0 °F 64.0 °F 100% 29.72 in 10.0 mi ENE 5.8 mph - 0.00 in   Light Drizzle
6:04 PM 64.4 °F 64.4 °F 100% 29.71 in 10.0 mi ENE 3.5 mph - N/A   Overcast
6:09 PM 64.4 °F 64.4 °F 100% 29.71 in 10.0 mi Variable 3.5 mph - N/A   Overcast
6:19 PM 64.4 °F 64.4 °F 100% 29.71 in 10.0 mi East 4.6 mph - N/A   Light Drizzle
6:35 PM 64.4 °F 64.4 °F 100% 29.70 in 10.0 mi ENE 6.9 mph - N/A   Overcast
6:58 PM 62.6 °F 62.6 °F 100% 29.71 in 10.0 mi ENE 8.1 mph - 0.00 in   Overcast
7:58 PM 62.2 °F 62.2 °F 100% 29.69 in 10.0 mi Variable 4.6 mph - N/A   Overcast
8:19 PM 62.6 °F 62.6 °F 100% 29.67 in 10.0 mi East 9.2 mph - N/A Rain Light Rain
8:24 PM 62.6 °F 62.6 °F 100% 29.67 in 10.0 mi East 10.4 mph - N/A Rain Light Rain
8:58 PM 62.1 °F 62.1 °F 100% 29.69 in 10.0 mi East 3.5 mph - 0.00 in   Light Drizzle
9:03 PM 62.6 °F 62.6 °F 100% 29.68 in 10.0 mi East 4.6 mph - N/A Rain Light Rain
9:14 PM 62.6 °F 62.6 °F 100% 29.68 in 10.0 mi ESE 5.8 mph - N/A   Overcast
9:58 PM 63.5 °F 63.5 °F 100% 29.67 in 10.0 mi ESE 6.9 mph - 0.01 in   Overcast
10:23 PM 64.4 °F 64.4 °F 100% 29.66 in 10.0 mi ESE 8.1 mph - N/A   Overcast
10:48 PM 64.4 °F 64.4 °F 100% 29.65 in 10.0 mi SE 4.6 mph - N/A   Overcast
10:58 PM 65.3 °F 65.3 °F 100% 29.65 in 10.0 mi SE 6.9 mph - N/A   Overcast
11:35 PM 66.2 °F 66.2 °F 100% 29.62 in 10.0 mi SE 12.7 mph 21.9 mph N/A Rain Light Rain
11:40 PM 66.2 °F 66.2 °F 100% 29.62 in 9.0 mi SSE 11.5 mph 21.9 mph N/A Rain Light Rain
11:50 PM 66.2 °F 66.2 °F 100% 29.62 in 8.0 mi South 8.1 mph - N/A   Overcast
11:58 PM 66.7 °F 66.7 °F 100% 29.62 in 8.0 mi South 11.5 mph - 0.00 in   Overcast